YUZGU 7 (RS1S) (53309 NORAD) Tracking and Keplerian Element Data

This shows tracking and keplerian element data for the satellite.

Feedback or suggestion? Click here.




ElementValue
Catalog53309
NameYUZGU 7 (RS1S)
Epoch Orbit1909
Epoch Day325.13981408
Epoch Year2022
RAAN273.3671
Inclination51.6361
Eccentricity0.000888
Argument of Perigee108.4489
Mean Anonmoly251.7472
Mean Motion15.66625426
Decay Rate0.00105047
L11 53309U 98067TU 22325.13981408 .00105047 00000+0 97328-3 0 9996
L22 53309 51.6361 273.3671 0008880 108.4489 251.7472 15.66625426 19091



Live tracking and technical data element details for YUZGU 7 (RS1S) (NORAD 53309). YUZGU 7 (RS1S) can be tracked NOW for your location showing map with azimuth and elevation plus other details from your city location.







IsCatalogInMostPopularTable: catalog: 53309, numindb: 4
Update: records affected: 1



GetName: 53309 YUZGU 7 (RS1S)

Hit Count: updated at: Tue, 29 Nov 2022 02:07:30 GMT